Showing default

COSMOS 2535, 44421

Orbit data source: Space-Track

COSMOS 2535, 44421 is a payload satellite owned by TS VS RF (CIS) in SSO that was launched on Wed, 10 Jul 2019 UTC via a SOYUZ-2-1V launch vehicle from the Plesetsk Missile And Space Complex (PKMTR). Payloads include a variety of satellites, spacecraft, and rockets equipped with specific instruments for various scientific and technological missions. These include communications satellites like Starlink; space stations such as the ISS; scientific satellites like the Hubble; Earth observation satellites from companies like Planet Labs, Umbra, and HawkEye 360; GPS; miniature CubeSats for education and research; and military/defense satellites.

Loading next visibility...
COSMOS 2535 details
Identifier
44421, 2019-039A
Orbit
SSO
Last TLE update5 hours ago
Origin
Flag of CISTS VS RF (CIS)
ManufacturerLavochkin
MissionNon-operational Defense Technology
Bus & MotorKARAT-200, Unknown motor
Mass547 kg wet, ~400 kg dry
Launch date (UTC)
2019-07-10 (5 years ago)
Launch vehicle
SOYUZ-2-1V
Launch site
Plesetsk Missile And Space Complex (PKMTR)
Object type
Payload
Rocket body
Debris
Shape & HBRCyl + 2 Pan, 3 m
Radar Cross Section3.727 m², Large (>1 m²)

Expand to show TLE details & history

TLE from 5 hours ago
0 COSMOS 2535
1 44421U 19039A   24361.47300378  .00003390  00000-0  35784-3 0  9990
2 44421  97.6433  37.8331 0008261 191.7050 168.3977 14.89887221296417
Epoch: 2024-12-26T11:21Z
Definitive object data (Epoch: 2024-12-26T11:21:07.526Z)
Latitude-0.00006°
Longitude132.09985°
Altitude606.977 km
Speed7.553 km/s
True Right ascension02h 31m 19s
True Declination0° 00' 00"
Sunlit
Object was in full shadow at TLE epoch
Visualization TLE readout
Latitude80.70772°
Longitude6.97163°
Altitude612.255 km
Speed7.56 km/s
Apparent Right ascension03h 23m 38s
Apparent Declination35° 04' 36"
Sunlit
Object is in daylight
Visualization observer readout
Local Sidereal Time15:59:04
Azimuth7.483° NNE
Elevation-14.563°
Doppler factor1
Orbital elements
Apogee altitude601.065 km
Perigee altitude589.543 km
Semi-major axis6,973.441 km
Eccentricity0.0008261
Inclination97.6433°
RAAN37.8331°
Arg. of periapsis191.705°
True anomaly168.41672°
Mean anomaly168.3977°
Eccentric anomaly168.40721°
Mean motion3.72711 °/min
BSTAR0.00035784
Orbital period96.59 mins
Loading maneuver chart data...

COSMOS 2535 Visibility forecast

Observer location: undefined°, undefined

Span
Click to sort rows by Start time (UTC) header in descending order
Start Az.
Max El. time (UTC)
Max El. Az.
Max El.
End time (UTC)
End Az.
5 mins2024-12-27 02:00:52.844Z115.719° SE2024-12-27 02:02:52.844Z72.25° E26.568°2024-12-27 02:05:52.844Z15.35° NNE
4 mins2024-12-27 03:36:52.844Z232.883° WSW2024-12-27 03:38:52.844Z270.679° WNW19.842°2024-12-27 03:40:52.844Z305.191° NW
7 mins2024-12-27 15:19:52.844Z22.393° NNE2024-12-27 15:22:52.844Z102.811° ESE41.803°2024-12-27 15:26:52.844Z182.522° SSW
|